FW7362 Weather Reports


time (UTC)temp
C
wind
direction
speed
KPH
gust
KPH
rain 1hr
cm
rain 24hr
cm
rain mn
cm
humidity
%
barometer
mb
20260503212053 14 287 14.5 17.7 0.00 0.00 0.00 45 1014.3
20260503211550 14 245 12.9 14.5 0.00 0.00 0.00 43 1014.2
20260503211045 14 227 9.7 24.1 0.00 0.00 0.00 44 1014.3
20260503210542 15 270 11.3 16.1 0.00 0.00 0.00 43 1014.3
20260503210038 14 345 14.5 17.7 0.00 0.00 0.00 44 1014.2
20260503205535 15 332 3.2 4.8 0.00 0.00 0.00 47 1014.2
20260503205032 14 314 4.8 14.5 0.00 0.00 0.00 45 1014.5
20260503204528 15 301 6.4 20.9 0.00 0.00 0.00 45 1014.5
20260503204025 15 274 3.2 6.4 0.00 0.00 0.00 48 1014.4
20260503203523 15 246 9.7 11.3 0.00 0.00 0.00 45 1014.7
20260503203020 14 311 6.4 22.5 0.00 0.00 0.00 45 1014.7
20260503202518 13 329 3.2 6.4 0.00 0.00 0.00 48 1014.7
20260503202015 13 8 1.6 17.7 0.00 0.00 0.00 45 1014.9
20260503201514 15 255 9.7 25.7 0.00 0.00 0.00 46 1014.8
20260503201010 14 302 12.9 16.1 0.00 0.00 0.00 46 1015.0
20260503200506 15 297 16.1 22.5 0.00 0.00 0.00 45 1015.0
20260503200003 15 226 9.7 17.7 0.00 0.00 0.00 46 1015.2
20260503195500 14 300 8.0 14.5 0.00 0.00 0.00 45 1015.1
20260503194957 14 218 6.4 14.5 0.00 0.00 0.00 47 1015.2
20260503194455 14 316 6.4 16.1 0.00 0.00 0.00 48 1015.3
20260503193949 14 343 4.8 11.3 0.00 0.00 0.00 52 1015.4
20260503193445 13 337 3.2 11.3 0.00 0.00 0.00 52 1015.6
20260503192940 13 336 3.2 11.3 0.00 0.00 0.00 51 1015.8
20260503192437 13 315 8.0 24.1 0.00 0.00 0.00 47 1015.9
20260503191933 13 258 11.3 14.5 0.00 0.00 0.00 49 1015.5
20260503191431 14 350 4.8 22.5 0.00 0.00 0.00 47 1016.0
20260503190927 13 264 4.8 11.3 0.00 0.00 0.00 54 1016.0
20260503190424 13 221 19.3 25.7 0.00 0.00 0.00 46 1015.9
20260503185921 14 254 9.7 12.9 0.00 0.00 0.00 49 1016.1
20260503185418 13 307 8.0 14.5 0.00 0.00 0.00 51 1016.2
20260503184916 13 279 12.9 16.1 0.00 0.00 0.00 49 1016.1
20260503184414 13 251 11.3 17.7 0.00 0.00 0.00 50 1016.1
20260503183910 13 266 14.5 20.9 0.00 0.00 0.00 49 1016.0
20260503183407 13 313 11.3 22.5 0.00 0.00 0.00 52 1016.0
20260503182904 13 230 9.7 16.1 0.00 0.00 0.00 50 1016.3
20260503182403 13 317 6.4 9.7 0.00 0.00 0.00 48 1016.3
20260503181859 14 356 6.4 14.5 0.00 0.00 0.00 52 1016.3
20260503181356 13 340 4.8 16.1 0.00 0.00 0.00 54 1016.6
20260503180852 13 338 6.4 14.5 0.00 0.00 0.00 50 1016.3
20260503180351 13 313 6.4 11.3 0.00 0.00 0.00 53 1016.6
20260503175847 13 244 12.9 14.5 0.00 0.00 0.00 52 1016.5
20260503175345 12 331 4.8 17.7 0.00 0.00 0.00 53 1016.8
20260503174841 12 333 4.8 17.7 0.00 0.00 0.00 53 1016.8
20260503174340 13 280 9.7 16.1 0.00 0.00 0.00 48 1016.7
20260503173839 12 337 9.7 22.5 0.00 0.00 0.00 50 1016.6
20260503173336 13 254 9.7 16.1 0.00 0.00 0.00 51 1016.9
20260503172833 12 288 8.0 14.5 0.00 0.00 0.00 49 1016.9
20260503172331 12 316 3.2 11.3 0.00 0.00 0.00 54 1016.9
20260503171832 12 323 4.8 24.1 0.00 0.00 0.00 53 1016.8
20260503171329 12 329 4.8 12.9 0.00 0.00 0.00 49 1017.0
20260503170826 12 308 4.8 14.5 0.00 0.00 0.00 54 1017.0
20260503170322 12 278 12.9 16.1 0.00 0.00 0.00 51 1017.1
20260503150715 10 295 11.3 16.1 0.00 0.00 0.00 55 1017.9
20260503150211 10 268 11.3 22.5 0.00 0.00 0.00 54 1017.9
20260503140135 8 250 11.3 14.5 0.00 0.00 0.00 65 1018.2
20260503131105 7 15 6.4 14.5 0.00 0.00 0.00 71 1018.3
20260503130602 7 4 3.2 11.3 0.00 0.00 0.00 72 1018.4
20260503110452 0 347 1.6 1.6 0.00 0.00 0.00 99 1017.6
20260503090338 -1 6 0.0 0.0 0.00 0.00 0.00 99 1017.1
20260503081305 -1 6 0.0 0.0 0.00 0.00 0.00 99 1017.0
20260503080801 -1 6 0.0 0.0 0.00 0.00 0.00 99 1017.2
20260503080259 -1 6 0.0 0.0 0.00 0.00 0.00 99 1017.4
20260503072736 -1 6 0.0 0.0 0.00 0.00 0.00 98 1017.1
20260503072232 -1 6 0.0 0.0 0.00 0.00 0.00 98 1017.3
20260503071728 -1 6 0.0 0.0 0.00 0.00 0.00 98 1017.4
20260503071226 -1 6 0.0 0.0 0.00 0.00 0.00 98 1017.3
20260503070722 0 6 0.0 0.0 0.00 0.00 0.00 97 1017.3
20260503070220 0 5 0.0 0.0 0.00 0.00 0.00 97 1017.2
20260503060145 1 359 0.0 0.0 0.00 0.00 0.00 97 1017.3
20260503054632 1 358 0.0 0.0 0.00 0.00 0.00 98 1017.5
20260503054129 1 358 0.0 0.0 0.00 0.00 0.00 98 1017.5
20260503053627 1 357 0.0 0.0 0.00 0.00 0.00 97 1017.5
20260503053126 1 356 0.0 0.0 0.00 0.00 0.00 97 1017.5
20260503052621 1 350 1.6 1.6 0.00 0.00 0.00 97 1017.5
20260503052118 1 350 1.6 1.6 0.00 0.00 0.00 97 1017.7
20260503051613 1 358 0.0 0.0 0.00 0.00 0.00 97 1017.6
20260503051112 1 359 0.0 0.0 0.00 0.00 0.00 96 1017.6
20260503050608 1 359 0.0 0.0 0.00 0.00 0.00 96 1017.8
20260503050105 1 359 0.0 0.0 0.00 0.00 0.00 96 1017.8
20260503045601 1 359 0.0 0.0 0.00 0.00 0.00 97 1017.8
20260503045059 1 0 0.0 0.0 0.00 0.00 0.00 97 1017.8
20260503044555 1 0 0.0 0.0 0.00 0.00 0.00 97 1017.7
20260503044053 1 0 0.0 0.0 0.00 0.00 0.00 97 1017.8
20260503043549 1 0 0.0 0.0 0.00 0.00 0.00 97 1017.7
20260503043046 1 0 0.0 0.0 0.00 0.00 0.00 97 1017.6
20260503042543 1 0 0.0 0.0 0.00 0.00 0.00 97 1017.7
20260503042039 1 0 0.0 0.0 0.00 0.00 0.00 97 1017.8
20260503041536 1 0 0.0 0.0 0.00 0.00 0.00 96 1017.6
20260503041034 1 0 0.0 0.0 0.00 0.00 0.00 96 1017.9
20260503040531 1 0 0.0 0.0 0.00 0.00 0.00 96 1017.7
20260503040028 1 0 0.0 0.0 0.00 0.03 0.03 96 1017.8
20260503035525 1 358 0.0 0.0 0.00 0.03 0.03 95 1017.8
20260503035022 1 353 1.6 1.6 0.00 0.03 0.03 95 1017.9
20260503034519 2 0 1.6 1.6 0.00 0.03 0.03 95 1017.9
20260503034016 2 0 0.0 0.0 0.00 0.03 0.03 94 1017.7
20260503033514 2 1 0.0 0.0 0.00 0.03 0.03 94 1017.8
20260503033011 2 0 0.0 0.0 0.00 0.03 0.03 93 1017.9
20260503032510 1 2 0.0 0.0 0.00 0.03 0.03 93 1017.7
20260503032008 2 2 0.0 0.0 0.00 0.03 0.03 93 1017.9
20260503031505 2 2 0.0 0.0 0.00 0.03 0.03 92 1017.8
20260503031001 2 2 0.0 0.0 0.00 0.03 0.03 92 1017.8
20260503030458 2 2 0.0 0.0 0.00 0.03 0.03 92 1018.0
20260503025955 1 2 0.0 0.0 0.00 0.03 0.03 92 1017.9
20260503025451 1 2 0.0 0.0 0.00 0.03 0.03 92 1017.7
20260503024949 1 2 0.0 0.0 0.00 0.03 0.03 91 1018.0
20260503024445 1 2 0.0 0.0 0.00 0.03 0.03 91 1018.0
20260503023943 2 2 0.0 0.0 0.00 0.03 0.03 91 1018.1
20260503023440 2 2 0.0 0.0 0.00 0.03 0.03 91 1018.1
20260503022936 2 2 0.0 0.0 0.00 0.03 0.03 90 1018.2
20260503022431 2 2 0.0 0.0 0.00 0.03 0.03 90 1018.1
20260503021928 2 2 0.0 0.0 0.00 0.03 0.03 91 1018.2
20260503021424 2 1 0.0 0.0 0.00 0.03 0.03 91 1018.0
20260503020922 2 1 0.0 0.0 0.00 0.03 0.03 92 1018.0
20260503020419 2 1 0.0 0.0 0.00 0.03 0.03 92 1018.0
20260503015915 2 1 0.0 0.0 0.00 0.03 0.03 91 1017.9
20260503015413 2 1 0.0 0.0 0.00 0.03 0.03 92 1017.9
20260503014908 2 2 0.0 0.0 0.00 0.03 0.03 92 1017.8
20260503014406 2 2 0.0 0.0 0.00 0.03 0.03 92 1018.0
20260503013904 3 1 0.0 0.0 0.00 0.03 0.03 91 1017.9
20260503013400 3 1 0.0 1.6 0.00 0.03 0.03 91 1017.9
20260503012857 3 2 0.0 0.0 0.00 0.03 0.03 90 1017.9
20260503012355 3 2 0.0 0.0 0.00 0.03 0.03 90 1017.9
20260503011851 2 2 0.0 0.0 0.00 0.03 0.03 89 1018.0
20260503011348 2 3 0.0 0.0 0.00 0.03 0.03 89 1017.9
20260503010845 3 3 0.0 0.0 0.00 0.03 0.03 89 1017.9
20260503010342 2 2 0.0 0.0 0.00 0.03 0.03 88 1017.9
20260503005839 2 4 0.0 0.0 0.00 0.03 0.03 87 1018.0
20260503005337 2 4 0.0 0.0 0.00 0.03 0.03 87 1017.8
20260503004832 3 4 0.0 0.0 0.00 0.03 0.03 87 1017.6
20260503004330 3 4 0.0 0.0 0.00 0.03 0.03 86 1017.9
20260503003828 3 4 0.0 0.0 0.00 0.03 0.03 85 1017.6
20260503003324 3 4 0.0 0.0 0.00 0.03 0.03 84 1017.5
20260503002821 3 4 0.0 0.0 0.00 0.03 0.03 84 1017.6
20260503002318 3 4 0.0 0.0 0.00 0.03 0.03 83 1017.5
20260503001815 3 4 0.0 0.0 0.00 0.03 0.03 82 1017.6
20260503001311 3 4 0.0 0.0 0.00 0.03 0.03 81 1017.7
20260503000808 3 4 0.0 0.0 0.00 0.03 0.03 80 1017.6
20260503000306 3 4 0.0 0.0 0.00 0.03 0.03 79 1017.7
20260502235803 3 4 0.0 0.0 0.00 0.03 0.03 79 1017.7
20260502235300 3 4 0.0 0.0 0.00 0.03 0.03 79 1017.5
20260502234756 3 4 0.0 0.0 0.00 0.03 0.03 79 1017.5
20260502234254 3 4 0.0 0.0 0.00 0.03 0.03 80 1017.5
20260502233749 3 1 0.0 0.0 0.00 0.03 0.03 79 1017.6
20260502233247 4 1 0.0 0.0 0.00 0.03 0.03 79 1017.5
20260502232742 4 4 0.0 1.6 0.00 0.03 0.03 78 1017.4
20260502232239 4 4 0.0 1.6 0.00 0.03 0.03 77 1017.5
20260502231736 4 359 0.0 1.6 0.00 0.03 0.03 77 1017.6
20260502231234 4 9 0.0 0.0 0.00 0.03 0.03 76 1017.5
20260502230733 4 3 0.0 1.6 0.00 0.03 0.03 74 1017.5
20260502230231 5 16 1.6 1.6 0.00 0.03 0.03 74 1017.4
20260502225726 5 13 3.2 4.8 0.00 0.03 0.03 72 1017.5
20260502225224 5 11 0.0 3.2 0.00 0.03 0.03 73 1017.4
20260502224720 5 7 0.0 0.0 0.00 0.03 0.03 73 1017.5
20260502224217 5 1 0.0 3.2 0.00 0.03 0.03 73 1017.2
20260502223714 5 5 0.0 1.6 0.00 0.03 0.03 75 1017.5
20260502223212 5 7 0.0 0.0 0.00 0.03 0.03 74 1017.4
20260502222710 5 1 0.0 1.6 0.00 0.03 0.03 74 1017.3
20260502222206 5 1 1.6 1.6 0.00 0.03 0.03 74 1017.3
20260502221702 5 10 0.0 3.2 0.00 0.03 0.03 73 1017.3
20260502221159 5 7 0.0 0.0 0.00 0.03 0.03 75 1017.3
20260502220655 5 0 0.0 1.6 0.00 0.03 0.03 74 1017.4
20260502220151 5 5 0.0 0.0 0.00 0.03 0.03 72 1017.2
20260502215649 5 2 0.0 1.6 0.00 0.03 0.03 73 1017.1
20260502215145 5 1 0.0 1.6 0.00 0.03 0.03 72 1017.2
20260502214643 5 359 0.0 1.6 0.00 0.03 0.03 71 1017.2
20260502214139 5 2 0.0 3.2 0.00 0.03 0.03 71 1017.3
20260502213637 5 358 0.0 1.6 0.00 0.03 0.03 73 1017.3
20260502213134 5 350 1.6 1.6 0.00 0.03 0.03 74 1017.1
20260502212633 5 352 1.6 3.2 0.00 0.03 0.03 73 1017.2
20260502212131 5 10 0.0 0.0 0.00 0.03 0.03 76 1017.1